THORAD AGENA D DEB, 4655

Orbit data source: Space-Track

THORAD AGENA D DEB, 4655 is space debris in SSO originally from a launch on Wed, 08 Apr 1970 UTC launched from the Air Force Western Test Range (AFWTR). Debris objects in space refer to the collection of defunct objects orbiting the Earth. Examples of debris include non-operational satellites, rocket bodies, and fragments generated from explosions, collisions, or faulty payload assembly.

Loading next visibility...
Identifier
4655, 1970-025AP
Orbit
SSO
Country
Flag of USUS
Related business
Manufacturer
Unknown
Mission
Spacecraft
Bus & Motor
Unknown
Mass
Unknown
Launch date (UTC)
1970-04-08 (56 years ago)
Launch vehicle
Unknown
Launch site
Air Force Western Test Range (AFWTR)
Object type
Payload
Rocket body
Debris
Shape & HBR
Unknown shape, 0.1 m
Radar Cross Section
Small (<0.1 m²)

Expand to show TLE details & history
Last TLE update: 22 hours ago

TLE from 22 hours ago
0 THORAD AGENA D DEB
1 04655U 70025AP  25302.75376813  .00000334  00000-0  43549-3 0  9994
2 04655  99.9656  39.9523 0053773  13.5113 346.7457 13.69206611766286
Epoch: 2025-10-29T18:05Z
TLE epoch observation values (Epoch: 2025-10-29T18:05:25.566Z)
Latitude
-0°
Longitude
90.2734°
Altitude
966.597 km
Speed
7.388 km/s
True Right ascension
02h 39m 48s
True Declination
0° 00' 00"
Sunlit
Object was in full shadow at epoch
Visualization orbit readout
Latitude
Unknown
Longitude
Unknown
Altitude
Unknown
Speed
Unknown
Apparent Right ascension
Unknown
Apparent Declination
Unknown
Sunlit
N/A
Visualization observer readout
Local Sidereal Time
11:50:02
Azimuth
Unknown
Elevation
Unknown
Doppler factor
Unknown
Orbital elements
Apogee altitude
1,039.383 km
Perigee altitude
960.037 km
Semi-major axis
7,377.847 km
Eccentricity
0.00538
Inclination
99.9656°
RAAN
39.9523°
Arg. of periapsis
13.5113°
True anomaly
346.60349°
Mean anomaly
346.7457°
Eccentric anomaly
346.67469°
Mean motion
3.42491 °/min
Orbital period
105.11 mins
BSTAR
0.00043549
Loading maneuver chart data...
Computing Atmospheric mass density...

Documentation

Showing up to 5 results
|